Location: St. Clair Shores
(42.4970°N, 82.8890°W)
Time: 05:29:15
(UTC-04:00)

OTV 5 (USA 277) - Visible Passes

Search period start: 25 September 2018 00:00
Search period end: 05 October 2018 00:00
Orbit: 387 x 394 km, 54.5° (Epoch: 08 September)

Date Brightness Start Highest point End Pass type
(mag) Time Alt. Az. Time Alt. Az. Time Alt. Az.
25 Sep ? 06:36:28 10° S 06:38:54 20° SE 06:41:21 10° E visible
27 Sep ? 06:18:57 10° SSW 06:21:58 39° SE 06:24:59 10° ENE visible
28 Sep ? 05:25:17 17° SE 05:25:48 18° SE 05:28:03 10° E visible
29 Sep ? 06:03:56 36° SW 06:05:06 81° SE 06:08:19 10° NE visible
30 Sep ? 05:10:04 24° E 05:10:04 24° E 05:11:46 10° ENE visible
30 Sep ? 06:42:28 13° W 06:44:47 27° NNW 06:47:37 10° NNE visible
01 Oct ? 05:48:30 51° NNW 05:48:30 51° NNW 05:51:27 10° NE visible
02 Oct ? 04:54:26 15° NE 04:54:26 15° NE 04:55:08 10° NE visible
02 Oct ? 06:26:50 15° NW 06:28:10 19° NNW 06:30:33 10° NNE visible
03 Oct ? 05:32:43 23° N 05:32:43 23° N 05:34:29 10° NE visible
04 Oct ? 06:10:57 14° NNW 06:11:35 14° NNW 06:13:26 10° NNE visible
